Location: Albuquerque Trailhead
(34.7934°N, 106.3736°W)
Time: 23:43:27
(UTC+00:00)

Cosmos 1513 Rocket - Pass Details

Date: 20 June 2021
Orbit: 940 x 1008 km, 82.9° (Epoch: 01 August)

Event Time Altitude Azimuth Distance (km) Brightness Sun altitude
Rises 06:06:27 0° 354° (N) 3,614 8.6 -30.0°
Reaches altitude 10° 06:08:55 10° 355° (N) 2,671 7.7 -30.2°
Enters shadow 06:14:41 79° 24° (NNE) 973 4.4 -30.5°
